Regional Weather Roundup
Issued by NWS

Home | Current Version | Previous Version | Text Only | Print | Product List | Glossary Off
Versions: 1 2 3 4 5 6 7 8 9 10 11 12 13 14 15 16 17 18 19 20 21 22 23 24 25 26 27 28 29 30 31 32 33 34 35 36 37 38 39 40 41 42 43 44 45 46 47 48 49 50

000
ASUS45 KPSR 240610
RWRAZ

ARIZONA REGIONAL HOURLY WEATHER ROUNDUP
NATIONAL WEATHER SERVICE PHOENIX AZ
1100 PM MST SUN NOV 23 2014

NOTE: FAIR INDICATES FEW OR NO CLOUDS BELOW 12,000 FEET WITH NO
SIGNIFICANT WEATHER AND/OR OBSTRUCTIONS TO VISIBILITY.

AZZ001>003-036-240700-
NORTHWEST ARIZONA

CITY           SKY/WX    TMP DP  RH WIND       PRES   REMARKS
BULLHEAD CITY  CLEAR     52  14  22 CALM      30.24R
KINGMAN        CLEAR     35   7  31 SE10      30.25S WCI  27
6HR MIN TEMP:  34; 6HR MAX TEMP:  53;

$$

AZZ004>008-015-016-018-240700-
NORTH CENTRAL ARIZONA

CITY           SKY/WX    TMP DP  RH WIND       PRES   REMARKS
GRAND CANYON   MOCLDY    15  -6  39 CALM      30.23R
6HR MIN TEMP:  11; 6HR MAX TEMP:  39;

PRESCOTT       PTCLDY    34  -4  19 W6        30.23S WCI  29
6HR MIN TEMP:  30; 6HR MAX TEMP:  48;

FLAGSTAFF      PTCLDY    20  -6  31 SW7       30.20R WCI  11
6HR MIN TEMP:  18; 6HR MAX TEMP:  39;

PAYSON         CLEAR     39  -8  13 N10       30.21S WCI  32
$$

AZZ009>014-017-240700-
NORTHEAST ARIZONA

CITY           SKY/WX    TMP DP  RH WIND       PRES   REMARKS
WINSLOW        CLEAR     22  -5  30 SW8       30.21R WCI  12
6HR MIN TEMP:  22; 6HR MAX TEMP:  46;

SAINT JOHNS    PTCLDY    23   0  36 S5        30.17R WCI  17
6HR MIN TEMP:  23; 6HR MAX TEMP:  42;

SHOW LOW       CLEAR     23  -6  28 NE5       30.20R WCI  17
$$

AZZ023-240700-
GREATER PHOENIX AREA

CITY           SKY/WX    TMP DP  RH WIND       PRES   REMARKS
PHOENIX        PTCLDY    56  12  17 SW3       30.13R
6HR MIN TEMP:  53; 6HR MAX TEMP:  72;

BUCKEYE          N/A     54   1  12 N6        30.15R
LUKE AFB       CLEAR     52  10  18 N7        30.13R HAZE
6HR MIN TEMP:  48; 6HR MAX TEMP:  68;

DEER VALLEY    CLEAR     49   0  13 VRB5      30.13R
6HR MIN TEMP:  49; 6HR MAX TEMP:  68;

SCOTTSDALE     CLEAR     53   3  13 NW6       30.15R
6HR MIN TEMP:  52; 6HR MAX TEMP:  69;

MESA-GATEWAY   CLEAR     54  -2  10 SE7       30.14R
$$

AZZ027-028-240700-
SOUTHWEST MARICOPA COUNTY AND PINAL COUNTY

CITY           SKY/WX    TMP DP  RH WIND       PRES   REMARKS
CASA GRANDE    CLEAR     46   7  19 CALM      30.14R
6HR MIN TEMP:  46; 6HR MAX TEMP:  70;

$$

AZZ503-504-507>509-240700-
SOUTHEAST ARIZONA

CITY           SKY/WX    TMP DP  RH WIND       PRES   REMARKS
TUCSON         CLEAR     48  21  34 E3        30.15S
6HR MIN TEMP:  47; 6HR MAX TEMP:  63;

DAVIS-MONTHAN  CLEAR     45  16  30 E5        30.13S
6HR MIN TEMP:  44; 6HR MAX TEMP:  61;

NOGALES        CLEAR     45  17  32 N6        30.14R
6HR MIN TEMP:  40; 6HR MAX TEMP:  58;

SIERRA VISTA   CLEAR     47  -1  13 CALM      30.16S
6HR MIN TEMP:  43; 6HR MAX TEMP:  53;

DOUGLAS        CLEAR     39   2  21 NW12      30.15R WCI  32
6HR MIN TEMP:  32; 6HR MAX TEMP:  57;

SAFFORD        CLEAR     40  -1  18 NW10      30.13S WCI  33
6HR MIN TEMP:  39; 6HR MAX TEMP:  60;

$$

AZZ020-021-025-026-031-240700-
SOUTHWEST ARIZONA

CITY           SKY/WX    TMP DP  RH WIND       PRES   REMARKS
YUMA           PTCLDY    59  10  14 NW8       30.15R
6HR MIN TEMP:  57; 6HR MAX TEMP:  73;

$$

CAZ031-033-041-043-047-048-061-240700-
SOUTHERN CALIFORNIA

CITY           SKY/WX    TMP DP  RH WIND       PRES   REMARKS
DOWNTOWN L.A.  CLEAR     61  20  20 CALM      30.14R
6HR MIN TEMP:  60; 6HR MAX TEMP:  77;

L.A. AIRPORT   PTCLDY    66  13  12 N3        30.15R
6HR MIN TEMP:  65; 6HR MAX TEMP:  77;

SAN DIEGO      PTCLDY    63  52  67 CALM      30.15R
6HR MIN TEMP:  63; 6HR MAX TEMP:  71;

BURBANK        CLEAR     59  11  15 W3        30.15R
6HR MIN TEMP:  59; 6HR MAX TEMP:  75;

ONTARIO        MOCLDY    57  20  23 CALM      30.16R
6HR MIN TEMP:  57; 6HR MAX TEMP:  75;

RIVERSIDE      MOCLDY    56  15  20 VRB3      30.17S
6HR MIN TEMP:  55; 6HR MAX TEMP:  72;

PALM SPRINGS   PTCLDY    63  11  13 W5        30.21R
6HR MIN TEMP:  58; 6HR MAX TEMP:  74;

EL CENTRO NAS  MOCLDY    53  23  31 SW6       30.18R
6HR MIN TEMP:  51; 6HR MAX TEMP:  72;

IMPERIAL       PTCLDY    50  28  42 W3        30.17R
6HR MIN TEMP:  50; 6HR MAX TEMP:  73;

BLYTHE         CLEAR     58   5  12 NW10      30.19R
6HR MIN TEMP:  58; 6HR MAX TEMP:  71;

NEEDLES        CLEAR     55   7  14 NW9       30.22R
6HR MIN TEMP:  52; 6HR MAX TEMP:  67;

$$

NVZ020-UTZ003-240700-
SOUTHERN NEVADA-UTAH

CITY           SKY/WX    TMP DP  RH WIND       PRES   REMARKS
LAS VEGAS      PTCLDY    50   9  19 S10       30.22R
6HR MIN TEMP:  49; 6HR MAX TEMP:  61;

SALT LAKE CITY CLOUDY    36  23  59 S6        30.23S WCI  31
6HR MIN TEMP:  35; 6HR MAX TEMP:  39;

$$

NMZ009-TXZ055-240700-
NEW MEXICO-WEST TEXAS

CITY           SKY/WX    TMP DP  RH WIND       PRES   REMARKS
ALBUQUERQUE    CLEAR     36  11  35 NW10      30.08R WCI  28
6HR MIN TEMP:  36; 6HR MAX TEMP:  42;

EL PASO        PTCLDY    50   0  12 N22G29    30.06R
6HR MIN TEMP:  50; 6HR MAX TEMP:  61;

$$


........................KEY........................
SKY/WX - SKY CONDITION/WEATHER
TMP    - TEMPERATURE IN FAHRENHEIT
DP     - DEW POINT IN FAHRENHEIT
RH     - RELATIVE HUMIDITY IN PERCENT
WIND   - DIRECTION AND SPEED IN MILES PER HOUR (MPH)
VRB    - VARIABLE WIND DIRECTION
PRES   - MEAN SEA LEVEL PRESSURE IN INCHES OF MERCURY
         F - FALLING PRESSURE   R - RISING PRESSURE
         S - STEADY PRESSURE
VSB    - VISIBILITY IN MILES
HX     - HEAT INDEX IN FAHRENHEIT
WCI    - WIND CHILL INDEX IN FAHRENHEIT
TC     - TEMPERATURE IN CELSIUS WHICH IS ALSO KNOWN AS
         TEMPERATURE IN CENTIGRADE
AFB    - AIR FORCE BASE
         LUKE AFB IS LUKE AIR FORCE BASE
         DAVIS-MONTHAN IS DAVIS-MONTHAN AIR FORCE BASE
NAS    - NAVAL AIR STATION
         EL CENTRO NAS IS EL CENTRO NAVAL AIR STATION
N/A    - NOT AVAILABLE



USA.gov is the U.S. government's official web portal to all federal, state and local government web resources and services.